Home   Weather   Guelph   Past weeks

Flag for Canada Past Weather in Guelph, Ontario, Canada — Yesterday and Last 2 Weeks

Now
34 °F

Fog.


Feels Like: 30 °F
Forecast: 31 / 36 °F
Wind: 5 mph from West

Location: Waterloo Well

Current Time: Jan 19, 2017 at 12:33:55 pm

Latest Report: Jan 19, 2017 at 11:42 am


Visibility: 5 mi

Pressure: 30.06 "Hg

Humidity: 87%

Dew Point: 30 °F

Location of GuelphLocation

Past Weather in Guelph — Graph

°F

Guelph Temperature Yesterday

Maximum temperature yesterday: 36 °F (at 11:13 am)
Minimum temperature yesterday: 34 °F (at 12:00 am)
Average temperature yesterday: 35 °F

High & Low Weather Summary for the Past Weeks

 TemperatureHumidityPressure
High48 °F (Jan 12, 2:41 am)100% (Jan 10, 7:28 am)30.78 "Hg (Jan 10, 7:28 am)
Low3 °F (Jan 7, 8:00 am)41% (Jan 16, 3:00 pm)29.44 "Hg (Jan 10, 11:29 pm)
Average24 °F83%30.11 "Hg
* Reported Jan 4 11:00 am — Jan 19 11:06 am, Guelph, Weather by CustomWeather, © 2017

Note: Actual official high and low records may vary slightly from our data, if they occured in-between our weather recording intervals... More about our weather records

Advertising

Guelph Weather History for the Previous 24 Hours

Scroll right to see more
 ConditionsComfort  
Time TempWeatherWind HumidityBarometerVisibility
11:06 am
Thu, Jan 19
34 °FFog.6 mph93%30.08 "Hg6 mi
10:30 am34 °FFog.6 mph93%30.09 "Hg3 mi
10:00 am34 °FLight rain. Fog.5 mph93%30.10 "Hg3 mi
9:51 am34 °FLight rain. Fog.7 mph93%30.09 "Hg3 mi
9:19 am32 °FIce fog.8 mph100%30.09 "Hg3 mi
9:00 am32 °FLight rain. Ice fog.5 mph100%30.09 "Hg2 mi
8:33 am32 °FLight rain. Ice fog.5 mph100%30.08 "Hg2 mi
8:00 am32 °FIce fog.6 mph100%30.07 "Hg2 mi
7:38 am32 °FIce fog.7 mph100%30.06 "Hg2 mi
7:00 am32 °FIce fog.8 mph100%30.06 "Hg3 mi
6:19 am32 °FIce fog.12 mph100%30.05 "Hg3 mi
6:07 am34 °FLight rain. Fog.9 mph93%30.05 "Hg3 mi
5:27 am34 °FFog.15 mph93%30.04 "Hg5 mi
5:02 am34 °FFog.15 mph93%30.03 "Hg6 mi
4:00 am34 °FFog.13 mph93%30.01 "Hg3 mi
3:31 am36 °FFog.9 mph93%30.01 "Hg5 mi
3:00 am36 °FOvercast.12 mph93%30.02 "Hg7 mi
2:50 am36 °FFog.10 mph93%30.02 "Hg6 mi
2:04 am36 °FFog.8 mph93%30.02 "Hg5 mi
1:44 am36 °FFog.13 mph93%30.02 "Hg6 mi
1:28 am36 °FFog.12 mph93%30.01 "Hg6 mi
1:00 am36 °FFog.9 mph93%30.00 "Hg5 mi
12:23 am36 °FFog.17 mph100%30.01 "Hg4 mi
11:42 pm
Wed, Jan 18
36 °FFog.16 mph100%30.01 "Hg2 mi
11:24 pm36 °FFog.12 mph100%30.01 "Hg1 mi
11:07 pm36 °FLight rain. Fog.13 mph100%30.01 "Hg1 mi
10:04 pm36 °FFog.12 mph100%30.01 "Hg1 mi
9:00 pm36 °FFog.9 mph93%30.00 "Hg0 mi
8:14 pm36 °FFog.9 mph93%30.00 "Hg1 mi
8:00 pm36 °FFog.9 mph93%30.01 "Hg1 mi
7:00 pm36 °FFog.8 mph93%30.01 "Hg3 mi
6:26 pm36 °FFog.7 mph93%30.02 "Hg5 mi
6:24 pm36 °FFog.8 mph93%30.02 "Hg5 mi
6:00 pm36 °FFog.7 mph93%30.01 "Hg6 mi
5:00 pm36 °FFog.7 mph93%30.02 "Hg6 mi
4:00 pm36 °FLow clouds.10 mph93%30.02 "Hg7 mi
3:00 pm36 °FLow clouds.10 mph93%30.01 "Hg9 mi
2:46 pm36 °FLow clouds.12 mph93%30.01 "Hg9 mi
2:34 pm36 °FFog.10 mph93%30.00 "Hg6 mi
2:00 pm36 °FFog.8 mph93%29.99 "Hg1 mi
1:21 pm36 °FFog.13 mph93%29.98 "Hg2 mi
1:01 pm36 °FFog.12 mph93%29.99 "Hg5 mi
12:00 pm36 °FLow clouds.13 mph93%29.99 "Hg9 mi
Weather by CustomWeather, © 2017

See weather overviewHow to use our weather pages